K0JSC-13 Weather Reports


Display with metric or nautical units.
time (UTC)temp
F
wind
direction
speed
MPH
gust
MPH
rain 1hr
in
rain 24hr
in
rain mn
in
humidity
%
barometer
mb
20260505195403 43 79 11.0 16.0 0.00 0.00 0.00 81 989.6
20260505194503 43 78 9.0 17.0 0.00 0.00 0.00 81 989.6
20260505193603 44 80 10.0 17.0 0.00 0.00 0.00 81 989.6
20260505192703 44 84 8.0 13.0 0.00 0.00 0.00 81 989.6
20260505191803 44 83 8.0 15.0 0.00 0.00 0.00 81 989.5
20260505190903 43 85 8.0 15.0 0.00 0.00 0.00 82 989.6
20260505190004 43 85 9.0 18.0 0.00 0.00 0.00 83 989.6
20260505185403 43 83 8.0 13.0 0.00 0.00 0.00 84 989.6
20260505184717 43 83 9.0 15.0 0.00 0.00 0.00 84 989.6
20260505183817 44 88 10.0 15.0 0.00 0.00 0.00 83 989.7
20260505182703 44 89 8.0 13.0 0.00 0.00 0.00 80 989.6
20260505181803 44 86 8.0 13.0 0.00 0.00 0.00 78 989.5
20260505180903 44 88 8.0 13.0 0.00 0.00 0.00 77 989.5
20260505180003 44 85 10.0 15.0 0.00 0.00 0.00 76 989.6
20260505175404 44 90 9.0 15.0 0.00 0.00 0.00 75 989.7
20260505174503 44 91 9.0 14.0 0.00 0.00 0.00 75 989.8
20260505173603 44 90 10.0 16.0 0.00 0.00 0.00 75 989.8
20260505172703 44 88 9.0 15.0 0.00 0.00 0.00 74 989.7
20260505171803 44 92 9.0 14.0 0.00 0.00 0.00 75 989.7
20260505171116 45 97 9.0 15.0 0.00 0.00 0.00 74 989.7
20260505170003 45 92 9.0 15.0 0.00 0.00 0.00 75 989.6
20260505165403 45 98 9.0 13.0 0.00 0.00 0.00 74 989.6
20260505164504 45 105 9.0 15.0 0.00 0.00 0.00 74 989.6
20260505163818 45 106 9.0 15.0 0.00 0.00 0.00 74 989.6
20260505162703 46 111 9.0 16.0 0.00 0.00 0.00 73 989.5
20260505161803 46 110 8.0 15.0 0.00 0.00 0.00 71 989.4
20260505160903 46 105 7.0 13.0 0.00 0.00 0.00 71 989.3
20260505160217 46 100 9.0 14.0 0.00 0.00 0.00 71 989.3
20260505152703 47 81 10.0 14.0 0.00 0.00 0.00 69 989.0
20260505151803 47 85 9.0 14.0 0.00 0.00 0.00 69 988.9
20260505151118 47 85 9.0 15.0 0.00 0.00 0.00 69 988.8
20260505130218 49 91 7.0 12.0 0.00 0.00 0.00 65 987.7
20260505124504 49 100 5.0 11.0 0.00 0.00 0.00 67 987.3
20260505123603 48 111 5.0 9.0 0.00 0.00 0.00 68 987.1
20260505122703 48 120 3.0 6.0 0.00 0.00 0.00 71 986.8
20260505121804 48 139 2.0 6.0 0.00 0.00 0.00 74 986.9
20260505120903 48 142 2.0 4.0 0.00 0.00 0.00 74 986.8
20260505120004 48 136 3.0 5.0 0.00 0.00 0.00 74 986.4
20260505115403 48 141 3.0 5.0 0.00 0.00 0.00 74 986.5
20260505114503 48 140 1.0 5.0 0.00 0.00 0.00 75 986.4
20260505113603 48 138 1.0 4.0 0.00 0.00 0.00 75 986.2
20260505112703 47 138 1.0 4.0 0.00 0.00 0.00 75 986.2
20260505111803 47 130 0.0 3.0 0.00 0.00 0.00 75 986.0
20260505111118 48 132 1.0 3.0 0.00 0.00 0.00 75 986.0
20260505101803 49 129 2.0 5.0 0.00 0.00 0.00 71 986.1
20260505101118 50 138 2.0 5.0 0.00 0.00 0.00 71 986.2
20260505100004 50 144 2.0 5.0 0.00 0.00 0.00 69 986.1
20260505095403 51 141 2.0 5.0 0.00 0.00 0.00 67 986.2
20260505094503 51 135 4.0 7.0 0.00 0.00 0.00 66 986.0
20260505093817 51 136 2.0 7.0 0.00 0.00 0.00 65 986.1
20260505092703 51 226 1.0 4.0 0.00 0.00 0.00 64 986.3
20260505091803 51 232 1.0 4.0 0.00 0.00 0.00 66 986.2
20260505090903 51 246 0.0 3.0 0.00 0.00 0.00 66 986.1
20260505090005 52 219 0.0 2.0 0.00 0.00 0.00 66 986.1
20260505085403 52 233 0.0 3.0 0.00 0.00 0.00 65 986.0
20260505084503 52 232 0.0 3.0 0.00 0.00 0.00 64 986.1
20260505083603 52 214 0.0 4.0 0.00 0.00 0.00 63 985.9
20260505082706 52 233 0.0 3.0 0.00 0.00 0.00 63 986.0
20260505081803 53 245 0.0 3.0 0.00 0.00 0.00 63 986.0
20260505080903 53 245 0.0 3.0 0.00 0.00 0.00 63 986.0
20260505080218 53 218 0.0 3.0 0.00 0.00 0.00 63 985.9
20260505075403 53 228 0.0 3.0 0.00 0.00 0.00 62 985.9
20260505074503 54 243 1.0 8.0 0.00 0.00 0.00 61 985.8
20260505073604 54 235 0.0 3.0 0.00 0.00 0.00 59 985.8
20260505072918 54 235 0.0 3.0 0.00 0.00 0.00 58 986.0
20260505071803 54 249 0.0 3.0 0.00 0.00 0.00 57 985.9
20260505070903 55 300 0.0 3.0 0.00 0.00 0.00 57 985.9
20260505070003 55 286 0.0 4.0 0.00 0.00 0.00 58 985.7
20260505065617 55 288 0.0 4.0 0.00 0.00 0.00 58 985.8
20260505064717 54 123 0.0 1.0 0.00 0.00 0.00 60 985.5
20260505063604 54 114 0.0 1.0 0.00 0.00 0.00 59 985.6
20260505062917 55 108 0.0 1.0 0.00 0.00 0.00 59 985.4
20260505061803 55 107 0.0 1.0 0.00 0.00 0.00 59 985.7
20260505061118 55 107 0.0 1.0 0.00 0.00 0.00 58 985.6
20260505060005 55 338 0.0 1.0 0.00 0.00 0.00 58 985.5
20260505055403 55 197 0.0 1.0 0.00 0.00 0.00 59 985.7
20260505054504 56 181 0.0 3.0 0.00 0.00 0.00 58 985.6
20260505053603 56 140 0.0 1.0 0.00 0.00 0.00 57 985.7
20260505052917 56 159 0.0 2.0 0.00 0.00 0.00 57 985.6
20260505051804 56 212 0.0 3.0 0.00 0.00 0.00 58 985.6
20260505050903 56 206 0.0 2.0 0.00 0.00 0.00 59 985.6
20260505050217 56 212 1.0 3.0 0.00 0.00 0.00 58 985.5
20260505040904 58 116 0.0 1.0 0.00 0.00 0.00 48 984.8
20260505040004 59 119 0.0 1.0 0.00 0.00 0.00 46 984.6
20260505035403 59 92 0.0 1.0 0.00 0.00 0.00 46 984.4
20260505034503 59 64 0.0 4.0 0.00 0.00 0.00 46 984.3
20260505033603 59 76 3.0 8.0 0.00 0.00 0.00 48 984.3
20260505032703 59 86 2.0 8.0 0.00 0.00 0.00 48 983.9
20260505031803 60 152 2.0 8.0 0.00 0.00 0.00 45 983.8
20260505030903 60 223 2.0 10.0 0.00 0.00 0.00 43 983.7
20260505030004 61 194 1.0 3.0 0.00 0.00 0.00 42 983.1
20260505025618 61 166 0.0 3.0 0.00 0.00 0.00 42 982.8
20260505024503 61 96 3.0 10.0 0.00 0.00 0.00 41 982.0
20260505023603 61 89 6.0 16.0 0.00 0.00 0.00 42 981.6
20260505022703 62 95 3.0 10.0 0.00 0.00 0.00 40 981.5
20260505021803 64 95 4.0 12.0 0.00 0.00 0.00 39 981.2
20260505020903 66 95 5.0 15.0 0.00 0.00 0.00 33 981.2
20260505020004 66 87 7.0 13.0 0.00 0.00 0.00 31 980.9
20260505015403 67 86 7.0 14.0 0.00 0.00 0.00 32 980.7
20260505014503 67 86 7.0 14.0 0.00 0.00 0.00 30 980.7
20260505013603 67 86 6.0 11.0 0.00 0.00 0.00 31 980.5
20260505012703 68 86 8.0 13.0 0.00 0.00 0.00 31 980.2
20260505011803 68 88 7.0 13.0 0.00 0.00 0.00 32 980.2
20260505010903 68 85 9.0 14.0 0.00 0.00 0.00 29 980.2
20260505010004 68 88 6.0 13.0 0.00 0.00 0.00 30 980.1
20260505005403 69 85 9.0 16.0 0.00 0.00 0.00 29 980.1
20260505004503 69 82 8.0 18.0 0.00 0.00 0.00 28 980.1
20260505003603 70 80 8.0 15.0 0.00 0.00 0.00 28 980.2
20260505002917 70 80 7.0 13.0 0.00 0.00 0.00 27 980.1
20260505001803 70 85 10.0 15.0 0.00 0.00 0.00 28 980.0
20260505000903 70 86 8.0 15.0 0.00 0.00 0.00 27 980.2
20260505000003 70 89 7.0 15.0 0.00 0.00 0.00 27 980.0
20260504235403 70 92 6.0 11.0 0.00 0.00 0.00 27 980.0
20260504234504 70 90 8.0 17.0 0.00 0.00 0.00 26 980.0
20260504233603 71 85 7.0 14.0 0.00 0.00 0.00 26 979.9
20260504232703 71 84 7.0 13.0 0.00 0.00 0.00 28 979.9
20260504231803 72 85 6.0 14.0 0.00 0.00 0.00 26 979.9
20260504231118 72 85 5.0 13.0 0.00 0.00 0.00 25 979.8
20260504230003 72 85 8.0 13.0 0.00 0.00 0.00 24 979.6
20260504225403 73 82 7.0 13.0 0.00 0.00 0.00 26 979.6
20260504224503 73 73 4.0 16.0 0.00 0.00 0.00 23 979.7
20260504223603 73 72 7.0 13.0 0.00 0.00 0.00 23 979.6
20260504222704 73 78 7.0 13.0 0.00 0.00 0.00 22 979.6
20260504221803 73 82 9.0 15.0 0.00 0.00 0.00 22 979.6
20260504220903 73 80 10.0 18.0 0.00 0.00 0.00 24 979.9
20260504220004 73 77 9.0 20.0 0.00 0.00 0.00 23 980.1
20260504215403 73 73 8.0 20.0 0.00 0.00 0.00 22 980.1
20260504214503 73 73 8.0 15.0 0.00 0.00 0.00 22 980.2
20260504213603 73 79 9.0 18.0 0.00 0.00 0.00 24 980.5
20260504212918 73 76 6.0 18.0 0.00 0.00 0.00 25 980.4
20260504211804 73 72 8.0 19.0 0.00 0.00 0.00 25 980.5
20260504210903 74 72 7.0 19.0 0.00 0.00 0.00 26 980.9
20260504210004 73 72 5.0 13.0 0.00 0.00 0.00 26 980.7
20260504205403 73 70 6.0 14.0 0.00 0.00 0.00 24 980.9
20260504204503 73 77 8.0 19.0 0.00 0.00 0.00 25 981.0
20260504203603 73 77 10.0 24.0 0.00 0.00 0.00 24 981.2
20260504202704 73 74 10.0 17.0 0.00 0.00 0.00 28 981.3
20260504201803 73 71 8.0 17.0 0.00 0.00 0.00 28 981.4
20260504201116 73 76 7.0 17.0 0.00 0.00 0.00 26 981.5
20260504200003 73 71 9.0 19.0 0.00 0.00 0.00 26 981.8